RH
8 7 10 16 17 16 16 17 19 11 4 5 3 2 3 2 2 1 1 1 2 3 1 2 2 3 7 9 9 11 11 17 26 32 37 41 43 45 44 44 44 44 45 46 47 47 46 45 44 41 38 34 31 30 30 30 29 27 26 23 24 44 76 98 101 99 99 94 84 91 99 82 73 88 97 94 94 99 100 97 82 68 79 92 92 93
8 10 19 25 19 15 14 12 10 5 2 2 1 2 1 1 2 0 2 3 4 6 4 2 4 9 14 17 20 22 23 29 35 40 44 48 51 52 53 53 54 52 52 52 52 53 53 52 51 48 46 43 40 38 36 35 35 33 31 30 26 25 38 68 95 101 99 101 93 85 91 93 83 79 89 95 97 99 100 97 81 66 79 97 97 98
7 12 24 27 20 14 10 6 4 2 1 1 1 2 2 3 4 2 1 2 7 10 6 2 6 19 24 26 33 35 39 43 45 50 55 60 63 65 66 64 63 61 60 59 59 58 57 55 54 53 52 50 48 46 45 44 43 43 40 38 36 32 28 34 61 91 101 100 99 93 83 86 96 91 82 80 85 94 98 100 92 70 69 91 100 99
8 15 23 24 18 11 6 3 2 1 1 2 3 5 5 7 11 14 7 2 6 9 12 9 13 33 37 34 46 50 52 57 59 64 70 74 78 77 75 72 69 68 65 63 62 61 59 57 56 56 55 54 53 53 52 51 50 49 49 48 47 46 44 37 38 60 89 101 100 100 93 87 95 99 92 83 73 81 94 99 102 89 71 77 93 100
11 17 21 18 11 6 3 2 1 2 1 2 7 11 13 14 15 19 15 11 7 4 15 19 20 42 45 41 59 65 60 67 75 82 88 90 90 85 79 75 71 69 67 65 63 62 61 60 59 59 58 58 57 56 55 54 53 53 52 53 55 54 54 54 49 46 63 88 99 101 100 98 98 95 96 100 88 83 94 99 101 100 86 75 81 95
15 20 18 10 5 3 2 2 2 3 2 2 8 14 21 24 21 19 20 23 21 12 14 24 37 58 58 51 65 76 75 81 90 95 99 99 95 88 81 76 72 70 68 67 66 66 65 64 63 63 62 62 61 59 58 57 56 57 58 57 57 58 57 57 58 55 52 64 82 94 100 101 101 97 93 100 102 96 98 100 99 100 97 87 80 86
19 18 10 3 5 5 2 2 3 3 3 5 10 15 18 21 18 17 20 27 31 23 14 20 41 60 68 68 71 84 93 96 98 100 100 99 95 89 82 76 73 71 71 71 71 71 71 70 69 68 67 65 64 63 62 62 61 59 60 60 59 58 58 57 56 58 57 55 59 70 86 94 96 100 100 98 101 101 98 98 100 99 100 98 93 90
15 7 2 3 6 4 2 4 5 4 7 9 11 12 10 10 9 9 18 24 26 27 19 18 32 47 67 85 89 93 100 100 99 100 99 99 95 90 84 80 78 77 77 79 79 79 79 79 77 76 75 72 71 70 68 66 64 63 61 60 60 58 57 58 56 55 57 57 56 55 61 72 77 83 94 99 100 101 99 98 100 100 100 99 98 98
10 2 2 6 6 3 4 6 6 6 9 10 9 8 6 8 8 10 22 25 22 32 31 24 37 53 68 87 98 99 100 99 100 99 99 100 98 96 91 89 89 90 90 90 89 87 86 85 84 82 81 79 78 76 74 73 70 67 65 61 58 57 56 56 57 57 55 53 54 54 52 54 58 61 69 80 89 95 97 98 100 101 100 99 96 97
10 4 4 7 6 4 4 6 7 7 11 13 8 5 6 7 8 18 32 31 29 43 46 42 49 61 72 86 97 101 99 100 100 99 100 100 98 98 96 96 97 95 92 90 86 82 80 79 78 77 76 75 74 73 72 72 72 70 68 65 60 55 53 52 53 55 56 55 52 52 52 50 51 51 52 56 63 73 84 93 98 100 100 98 96 96
14 7 5 5 6 4 4 6 6 7 11 13 9 8 9 4 6 23 36 33 39 50 48 48 50 54 74 92 97 98 96 96 98 97 97 96 96 98 98 96 93 87 82 78 74 71 69 67 66 66 66 66 65 64 63 63 64 65 64 64 63 58 54 49 48 47 48 52 53 52 52 51 49 49 49 49 50 54 64 76 85 90 94 98 98 98
17 10 5 5 5 3 4 5 6 11 11 8 12 17 16 12 10 23 36 39 54 62 49 45 47 53 76 90 89 91 90 90 94 94 93 95 98 100 95 87 78 72 67 62 60 58 56 56 54 53 52 51 51 51 51 50 50 52 53 55 56 57 56 52 49 46 43 43 44 46 49 50 50 49 47 47 48 48 50 56 61 64 70 80 90 96
18 16 8 5 5 4 5 4 4 12 12 7 12 16 22 36 40 37 44 54 62 60 47 43 48 60 78 81 79 86 89 89 93 96 97 99 100 93 80 68 59 54 50 46 44 43 42 43 41 41 39 37 37 36 36 36 34 34 34 37 40 43 46 48 48 46 45 42 39 38 39 42 45 48 47 46 44 44 44 44 45 44 45 52 64 77
18 22 12 5 7 7 6 6 11 16 14 12 14 14 25 58 80 70 60 67 68 56 41 37 46 68 84 80 73 78 85 92 97 99 101 100 92 78 62 54 48 43 40 37 36 35 33 32 32 32 31 29 28 27 26 25 24 23 22 22 24 26 28 31 35 37 39 39 39 36 35 35 35 38 42 44 44 43 41 39 39 39 39 39 43 53
14 20 14 6 7 9 6 9 18 18 15 17 17 15 17 42 83 92 80 81 83 68 48 40 52 71 82 78 70 73 83 95 101 100 101 96 81 66 54 46 42 38 39 43 46 47 43 38 36 33 31 28 24 22 20 20 18 18 18 18 17 17 18 18 20 22 25 27 29 30 31 32 32 32 32 35 39 42 41 39 36 35 36 37 38 40
14 15 13 8 6 7 6 10 14 11 14 18 13 13 15 27 60 75 70 71 73 70 60 58 69 73 68 64 64 75 89 97 101 100 97 86 67 54 46 42 41 40 45 53 59 63 62 55 52 48 40 31 25 23 21 21 20 19 19 18 16 15 14 14 14 14 15 16 17 19 21 24 26 28 28 29 30 33 38 40 38 34 32 33 35 36
15 14 11 7 6 7 6 11 16 14 20 20 10 11 18 31 52 58 62 65 66 76 71 59 64 63 57 59 63 79 96 98 100 96 84 68 52 44 40 36 36 35 43 55 60 64 68 70 72 64 48 36 32 31 30 27 26 26 24 21 19 18 17 15 15 14 13 13 13 13 14 15 17 19 22 24 25 25 28 33 37 37 34 32 31 32
11 11 9 6 5 7 6 9 14 16 21 19 14 15 17 33 57 69 82 82 76 84 73 50 54 57 57 70 78 89 100 98 94 83 64 50 40 37 36 35 36 42 56 71 78 83 86 89 88 74 53 44 42 39 37 36 36 37 37 34 29 27 24 22 20 18 18 17 15 13 12 13 13 14 14 16 18 20 20 21 26 32 36 35 33 30
9 11 10 7 6 7 8 9 11 13 15 12 14 22 27 48 74 81 88 88 84 92 79 56 58 59 56 64 72 80 89 89 80 62 47 42 37 36 40 46 56 69 82 90 93 97 97 96 92 78 62 53 49 44 43 44 47 52 56 54 50 44 38 33 29 26 24 22 20 17 15 14 13 14 14 13 13 14 15 16 16 19 25 31 34 33
12 14 9 6 7 8 7 9 11 12 13 9 12 21 33 61 86 83 77 79 85 96 90 74 68 63 54 52 58 70 79 77 65 49 45 46 43 43 50 61 73 85 95 96 96 99 97 94 88 77 65 56 50 50 51 54 57 61 64 63 62 59 52 45 39 35 31 27 23 21 19 18 17 16 17 17 16 13 13 13 13 12 14 19 25 29
11 17 12 7 8 9 10 13 13 14 13 11 13 14 25 53 71 67 62 64 76 92 96 92 82 61 46 46 60 76 75 64 54 50 54 55 47 46 56 71 79 85 92 94 96 99 95 88 80 69 60 55 55 56 56 58 61 62 66 67 66 62 55 49 44 42 40 37 33 30 27 25 24 23 24 24 23 21 17 16 15 14 13 13 15 19
9 16 13 8 9 8 11 14 15 18 15 14 19 19 34 66 76 75 72 58 64 83 88 96 95 68 45 45 56 63 56 48 51 59 64 58 48 48 59 72 79 82 87 88 87 88 85 80 73 63 58 58 61 60 56 56 57 60 63 67 68 65 60 56 52 50 49 46 43 41 39 36 34 35 37 36 35 33 29 24 21 19 17 15 14 14
9 14 11 9 11 11 14 18 20 22 17 15 20 23 46 74 72 77 85 69 72 87 81 89 99 72 46 43 44 42 39 42 54 67 68 56 47 51 58 65 70 75 78 77 77 78 78 75 66 58 57 60 62 61 61 62 65 67 69 69 69 67 65 62 58 56 55 52 48 46 45 43 44 49 51 50 50 47 43 38 32 28 25 20 17 16
11 13 10 9 12 9 13 22 27 27 20 17 25 36 59 69 56 66 84 82 92 96 80 88 95 63 37 36 37 36 39 45 56 63 60 52 48 53 56 56 59 62 66 70 74 76 74 67 59 56 57 60 62 65 69 72 73 71 69 67 66 64 62 60 56 54 54 55 54 52 52 51 54 63 68 67 65 59 51 46 41 37 33 27 22 20
12 13 11 16 25 22 18 24 27 25 21 21 30 44 59 64 64 73 77 79 92 88 76 90 88 50 29 32 36 39 45 51 57 57 55 54 53 51 51 53 56 60 64 67 68 68 64 59 58 61 63 64 68 72 75 76 73 68 64 62 61 60 60 58 55 52 52 55 58 59 61 63 65 71 75 77 78 73 66 60 52 46 41 36 30 26
12 13 13 21 35 38 30 25 20 17 19 21 24 30 36 42 49 57 68 84 90 77 74 88 78 43 27 32 36 39 47 53 52 49 52 56 54 48 47 53 60 63 62 60 59 58 57 57 62 66 69 73 76 77 78 77 73 67 62 61 61 61 61 60 58 56 55 56 58 59 61 64 66 67 68 70 72 73 73 72 67 61 55 48 44 40
14 16 16 17 23 25 22 19 16 17 21 23 24 25 25 28 33 49 75 84 72 69 78 76 66 52 38 36 40 41 48 53 46 42 47 50 48 47 51 58 62 59 55 54 55 55 56 61 66 70 75 78 79 79 79 77 73 68 63 61 62 64 64 63 62 62 60 58 58 58 58 59 60 61 61 61 61 61 61 61 61 60 56 51 49 46
16 20 21 19 17 17 17 16 17 21 23 26 30 29 24 25 31 47 63 56 54 82 84 51 47 63 50 40 49 53 53 51 45 42 43 43 46 53 60 61 54 49 49 51 53 56 61 67 71 74 79 81 80 79 77 73 70 68 66 64 65 66 67 67 65 64 63 62 61 59 59 59 60 61 61 60 58 57 55 54 54 54 53 50 47 44
18 21 22 20 18 19 18 18 20 23 26 29 32 30 26 27 31 38 43 41 58 87 73 40 52 70 50 38 51 60 59 53 47 45 44 45 54 61 60 53 46 45 48 51 55 61 68 75 80 83 84 81 78 77 75 72 70 69 69 68 68 69 69 68 66 65 65 65 64 63 62 62 62 64 65 63 60 57 56 55 57 58 58 57 54 51
19 22 24 21 19 18 19 21 23 24 28 29 27 26 28 29 30 34 35 39 58 72 58 52 67 61 36 37 52 57 56 51 44 44 47 53 59 58 51 46 46 49 51 53 60 67 75 84 91 92 86 80 77 78 77 75 74 73 72 71 71 71 71 70 68 67 68 68 68 67 66 65 66 66 66 66 64 63 61 59 60 62 63 64 63 60
20 23 24 23 21 19 19 23 26 27 28 26 24 26 31 31 29 32 34 40 56 62 57 68 75 48 24 34 44 42 41 40 40 45 50 52 50 45 43 44 46 50 53 59 68 78 86 91 91 88 85 81 81 82 82 79 78 77 76 76 75 74 73 73 72 72 73 73 72 72 71 70 70 70 70 69 69 68 67 65 64 65 67 69 69 67
20 23 24 29 30 23 20 26 30 29 27 23 24 28 29 27 28 32 36 40 46 53 59 71 67 39 24 32 34 29 32 39 44 50 49 41 35 37 44 48 49 51 57 67 77 86 90 89 87 86 86 86 87 87 87 83 81 80 78 78 78 77 78 78 78 78 78 77 77 76 75 74 74 74 74 73 73 73 73 73 73 73 73 73 73 73
21 23 26 37 40 26 21 30 31 28 28 25 26 28 26 27 30 34 38 38 40 50 58 56 43 30 30 35 30 27 33 36 35 35 34 31 31 38 46 51 54 61 72 82 87 88 88 85 85 87 88 91 93 92 90 87 84 82 79 78 80 81 81 81 80 81 80 81 81 79 78 78 77 77 77 76 76 77 78 79 79 79 80 80 82 84
21 25 30 41 45 32 25 30 31 30 31 27 25 26 26 30 33 34 35 35 36 41 43 38 32 30 30 30 30 35 40 38 31 25 23 30 41 48 49 54 65 76 86 91 90 88 88 85 85 88 91 95 94 91 90 89 87 85 82 82 83 82 81 80 81 83 83 83 83 82 82 82 80 79 79 79 81 81 82 83 83 85 88 90 91 93
22 29 36 44 48 40 31 35 40 37 30 25 26 28 28 32 33 32 32 32 31 33 33 34 33 31 28 25 27 34 36 34 30 24 22 32 49 60 63 68 79 87 89 90 90 89 90 88 87 88 91 93 92 90 89 89 88 87 85 84 85 85 84 84 84 86 86 85 85 85 85 85 83 82 82 83 84 85 86 87 87 88 90 92 94 96
24 31 39 44 47 44 40 43 46 38 27 24 29 31 31 33 34 33 31 27 27 31 34 34 31 27 25 23 21 23 25 25 24 21 25 35 46 61 74 79 83 89 92 93 94 92 90 90 90 92 92 92 91 90 90 90 91 89 86 86 89 89 88 89 88 88 87 86 87 88 87 87 87 87 87 86 87 88 88 88 88 88 90 91 92 95
25 32 41 48 50 47 46 44 39 35 30 28 30 31 33 34 34 35 34 27 26 34 36 33 28 23 21 21 20 19 20 22 21 19 26 38 44 55 71 81 85 89 93 96 96 95 94 94 95 94 93 91 91 93 95 95 94 92 89 89 91 92 92 92 90 88 88 88 88 88 89 90 90 90 89 89 90 89 88 87 87 89 92 93 93 95
25 32 42 52 55 53 55 60 63 59 43 30 30 32 34 36 35 37 40 33 30 37 37 29 25 22 20 21 21 20 20 21 20 19 26 35 40 46 59 72 82 88 91 93 94 93 94 96 97 96 94 92 92 96 99 98 95 93 91 91 93 94 93 92 89 87 88 89 89 89 91 92 92 91 91 91 91 90 88 88 90 92 95 97 96 96
25 31 42 55 59 56 60 71 77 65 41 28 31 34 37 39 35 39 48 42 34 37 35 28 25 23 22 21 21 24 30 27 20 19 24 29 33 42 52 61 70 77 79 83 88 93 96 97 96 95 94 94 94 97 99 98 96 94 92 93 94 94 92 91 89 89 90 92 91 91 92 93 93 94 93 92 91 90 89 90 92 93 96 98 98 98
26 32 43 52 54 52 60 67 62 46 31 29 34 37 38 36 36 50 62 50 35 34 32 26 25 23 22 24 22 24 32 35 26 20 22 26 32 42 53 60 63 64 65 67 73 84 93 98 97 93 90 91 94 97 99 100 99 97 95 94 94 94 92 92 92 93 94 94 94 93 93 93 94 95 96 94 91 89 90 92 94 95 96 97 99 100
26 32 39 45 46 51 62 69 58 38 29 32 35 37 37 37 44 60 63 43 30 32 29 24 25 24 22 23 22 19 24 29 27 24 24 28 32 38 48 56 56 57 64 70 73 77 83 89 93 91 87 87 92 96 101 103 103 101 98 95 94 94 92 93 96 98 97 97 97 96 95 94 94 95 97 96 93 90 91 95 98 98 97 98 99 100
26 31 35 39 45 49 55 63 58 40 27 30 34 34 36 41 47 48 41 32 31 32 28 25 24 23 21 21 21 21 20 21 23 24 26 29 32 35 39 41 41 45 57 67 72 76 79 78 76 75 77 81 87 95 101 104 103 102 100 98 97 96 94 96 99 101 101 101 100 99 98 97 95 94 96 98 96 92 92 97 101 100 99 100 100 99
24 30 32 33 39 44 49 62 63 45 28 29 34 35 36 38 38 35 32 33 35 31 28 27 25 22 22 22 21 21 21 21 22 24 25 27 31 32 30 30 34 40 47 54 60 68 74 71 62 59 63 71 81 94 102 103 101 102 101 100 99 97 96 98 102 103 104 104 103 101 101 99 97 96 98 100 98 94 94 98 100 100 100 100 100 100
23 27 29 28 32 36 40 45 42 32 27 31 33 33 34 33 33 33 33 34 34 31 29 28 25 23 21 21 22 22 22 22 22 23 24 25 26 26 25 27 31 35 39 46 52 56 60 58 54 52 55 61 75 92 102 104 102 102 102 102 102 100 98 100 103 104 104 104 104 104 103 102 101 101 101 101 99 96 96 98 99 100 101 101 100 100
20 21 23 23 24 27 26 22 21 23 30 33 32 31 33 33 34 33 32 32 34 32 28 27 26 24 22 21 22 23 22 22 23 23 23 23 23 24 24 26 29 32 36 41 45 47 48 48 50 53 56 62 75 91 100 103 105 105 104 104 103 101 98 100 103 104 103 103 104 104 102 101 104 104 102 101 100 97 96 98 98 99 101 102 101 100
18 18 21 21 20 22 20 16 19 27 31 31 32 33 34 35 34 33 33 34 33 30 28 27 26 25 23 22 22 23 23 23 22 23 24 24 23 24 25 26 29 33 36 39 42 43 44 46 51 58 62 69 82 92 96 99 104 106 106 105 104 102 100 100 102 104 104 104 105 104 102 101 103 104 103 102 101 100 99 99 98 98 100 101 100 100
17 19 22 21 21 24 21 16 21 30 33 32 34 36 37 38 37 37 36 35 34 32 29 27 27 27 26 23 22 24 25 24 23 23 24 23 23 24 26 28 30 33 37 41 43 44 45 46 52 59 65 72 85 92 93 95 102 106 106 105 104 103 102 101 101 102 103 104 104 103 102 101 102 104 103 102 102 101 100 100 99 98 99 100 100 100
18 20 21 20 20 22 19 17 25 33 33 34 38 40 41 43 42 40 39 37 35 34 31 28 27 28 27 25 24 25 26 26 25 25 23 23 24 25 27 29 33 37 40 42 43 43 43 46 52 57 62 72 85 92 92 96 102 106 105 105 104 104 103 102 101 101 102 103 104 103 102 101 102 103 103 101 101 101 100 101 100 99 100 102 101 100
18 19 19 19 20 20 18 21 30 35 33 35 43 47 48 50 49 45 42 40 38 36 33 30 28 27 27 26 26 27 28 28 27 26 25 24 25 26 29 32 36 40 41 40 39 40 43 48 53 56 62 72 83 89 92 97 104 106 106 105 105 105 104 101 99 100 102 103 103 102 103 103 103 103 104 103 101 101 101 101 100 99 100 103 103 100
16 17 19 21 22 20 20 24 34 39 37 39 47 53 55 57 56 52 49 46 43 40 38 35 32 30 27 26 26 29 30 30 29 28 26 25 26 28 31 36 39 40 38 36 38 41 45 49 52 56 63 73 81 87 92 98 103 107 107 106 105 105 103 100 97 98 100 100 101 101 101 102 103 103 103 103 103 102 102 102 102 99 97 99 101 100
16 18 20 21 20 20 23 29 37 43 43 45 52 58 60 61 60 59 56 52 48 45 42 41 39 36 32 29 29 31 32 32 32 29 27 27 28 30 34 39 41 38 34 34 38 43 45 47 50 55 62 70 76 82 89 96 103 107 105 104 104 104 103 100 97 96 96 97 98 98 99 100 102 101 101 102 103 103 101 101 103 102 99 98 99 98
Wind_Speed
16 16 20 23 23 21 19 18 16 18 22 23 25 27 27 31 34 34 33 32 33 38 41 38 37 38 36 35 36 36 38 38 38 39 39 40 40 41 40 40 40 39 38 35 33 31 28 27 25 25 25 26 26 26 26 26 25 26 28 31 37 43 47 46 44 42 42 43 43 42 42 44 45 42 39 40 39 33 30 33 35 36 41 43 43 45
14 19 23 22 20 18 17 17 17 20 24 26 28 29 30 32 36 36 34 34 35 38 41 39 40 41 36 33 32 32 34 35 36 36 36 36 35 35 34 33 33 31 30 28 27 25 23 21 20 19 19 19 20 20 21 21 21 21 23 25 28 34 41 46 47 44 41 40 43 45 43 42 45 47 44 41 40 39 36 35 35 36 38 39 40 43
13 19 20 18 16 16 17 19 22 24 27 29 29 31 33 34 37 38 37 36 35 37 40 39 37 34 31 28 27 27 29 30 32 33 31 31 29 28 27 25 24 23 22 22 20 20 19 18 17 16 16 15 15 14 15 15 15 16 17 18 21 24 30 37 44 47 43 38 39 45 47 44 42 42 45 48 46 43 40 36 36 38 38 39 40 44
15 18 17 16 14 15 19 21 23 24 27 29 28 31 34 34 34 37 40 40 37 39 39 36 30 22 22 26 24 22 24 25 27 27 26 25 23 21 19 17 17 16 16 16 15 15 15 14 14 14 13 12 11 10 10 10 11 11 12 12 13 14 18 23 31 41 44 41 37 37 42 47 46 41 39 44 49 48 45 41 39 40 41 41 41 43
17 16 15 15 15 17 19 22 25 28 31 29 25 29 33 33 32 32 37 39 40 41 33 28 25 13 11 18 19 17 21 22 22 23 21 19 17 15 14 12 12 11 11 10 10 10 10 11 11 11 11 11 10 10 9 8 8 8 8 8 9 9 10 12 16 25 36 43 42 36 34 38 45 48 43 37 41 46 46 45 42 40 42 44 44 43
19 17 14 14 15 16 20 25 29 31 32 30 26 28 29 30 31 31 33 34 36 37 33 27 20 6 4 11 15 15 19 20 19 19 16 15 13 12 11 10 9 8 8 8 9 9 9 10 10 10 10 11 11 11 11 10 10 9 9 8 9 9 9 8 9 11 19 31 42 43 39 35 36 45 47 39 36 39 40 43 45 44 44 46 46 45
19 15 13 15 15 16 24 29 28 28 29 29 28 27 27 29 31 32 33 32 29 31 35 33 20 7 6 10 15 16 18 18 16 16 14 13 12 11 11 10 9 8 8 9 10 10 11 11 11 11 11 12 12 13 13 13 13 12 11 11 10 11 11 10 10 9 10 14 25 36 40 38 35 37 41 36 32 33 32 34 41 45 46 47 48 48
15 14 17 18 17 21 29 29 26 26 26 27 27 27 30 31 31 32 31 29 28 30 33 32 23 15 9 8 12 15 16 16 16 16 15 14 14 13 12 10 10 10 10 11 12 12 13 13 14 14 14 14 14 14 15 15 16 16 16 15 15 15 14 13 13 12 12 11 12 18 26 32 33 33 36 36 33 31 29 27 30 36 40 42 43 46
12 19 22 19 21 26 28 25 24 24 23 25 27 28 31 30 30 30 24 21 24 26 25 27 24 11 7 6 6 10 15 16 16 16 16 16 15 13 12 12 13 14 15 16 16 17 18 18 19 20 20 20 20 19 19 19 19 20 20 20 21 20 20 18 17 15 15 15 14 14 16 21 25 26 28 32 34 33 31 29 27 28 33 37 36 36
11 20 22 19 23 27 25 22 23 23 22 25 27 30 31 29 30 24 15 18 19 15 14 22 27 15 6 9 6 5 11 12 12 13 13 14 14 15 15 15 16 18 19 21 22 24 25 25 26 26 27 27 27 27 26 25 25 24 24 24 24 24 24 23 22 21 20 18 18 18 17 18 21 23 24 25 28 31 33 34 33 31 31 33 32 29
10 16 21 23 24 25 24 23 23 23 24 25 28 34 34 34 33 18 11 16 13 6 9 18 31 26 9 4 4 5 9 9 10 11 13 16 17 16 17 18 20 23 25 27 28 29 30 30 31 31 32 32 32 33 33 33 32 31 30 30 29 28 27 26 26 26 26 25 23 22 22 21 21 23 25 26 27 28 31 34 37 38 37 36 35 31
4 13 22 23 23 25 25 25 24 23 25 28 30 35 33 32 31 17 12 15 5 3 12 24 37 29 8 4 8 10 13 13 13 13 15 18 18 18 21 25 28 29 32 34 34 35 35 35 35 35 36 37 37 38 38 38 38 38 37 37 36 35 33 32 30 29 29 29 29 29 27 26 26 25 26 28 29 30 30 31 32 34 36 36 37 36
1 8 21 21 21 27 29 30 31 28 29 31 34 37 26 16 17 13 10 11 5 11 24 33 34 17 6 11 15 12 14 15 15 15 16 17 19 25 30 34 36 37 39 40 40 40 40 40 41 41 41 42 42 42 43 43 43 44 44 43 42 42 41 39 37 35 34 33 33 33 33 31 30 30 29 29 30 32 32 32 32 32 32 31 32 34
3 3 18 24 22 24 28 31 33 30 30 31 34 36 22 7 7 7 5 6 7 20 33 37 27 10 7 16 19 17 17 17 15 15 16 18 24 33 38 41 43 44 44 44 44 43 44 44 44 44 44 44 45 45 45 46 46 47 47 48 48 47 47 46 46 44 43 41 39 37 37 36 35 34 33 33 32 33 34 34 35 36 37 35 33 32
9 2 15 26 22 22 26 27 26 24 25 26 27 27 21 10 2 2 4 4 8 21 32 29 15 7 11 18 23 23 20 17 15 15 17 22 31 38 42 45 46 47 46 44 44 43 44 45 45 45 45 45 46 46 46 46 45 45 46 47 48 49 50 50 50 50 50 49 47 45 42 41 40 39 37 37 36 35 36 36 36 37 39 41 40 37
11 4 11 21 20 21 25 25 24 25 24 24 25 25 24 14 3 7 10 10 13 18 19 13 7 9 18 25 28 24 21 18 15 17 21 27 37 42 45 48 48 48 46 44 43 43 44 45 45 45 44 45 46 46 46 45 43 43 42 43 44 45 47 48 49 50 51 52 52 51 49 47 45 44 43 41 40 39 39 39 38 38 39 41 42 42
13 7 10 20 20 21 25 24 24 26 24 23 25 26 24 11 3 9 13 13 12 9 10 10 10 17 23 26 27 22 20 18 15 19 27 35 42 46 47 49 48 46 45 43 43 43 44 45 44 44 43 44 46 46 47 46 43 40 38 39 40 40 41 43 44 46 47 49 51 52 52 51 50 49 49 47 46 45 44 43 42 41 40 41 42 43
17 11 12 21 22 20 23 24 24 26 24 23 21 23 23 11 4 8 9 9 6 4 10 15 15 20 21 18 20 18 16 17 19 26 34 40 44 46 47 48 45 44 42 41 42 42 43 44 44 44 44 45 48 48 47 45 42 38 36 35 36 37 38 39 40 42 43 44 47 49 50 51 52 51 51 51 51 51 49 48 47 45 44 44 43 43
16 11 11 21 23 19 21 24 27 29 27 24 18 18 19 8 5 11 8 5 6 3 8 16 17 18 20 18 19 20 20 21 26 33 39 42 45 46 45 44 42 41 40 40 42 43 43 45 45 45 46 49 51 49 45 42 39 35 33 33 33 35 37 38 39 40 41 42 43 45 47 48 50 51 50 51 51 53 53 52 51 50 49 48 47 47
12 7 11 21 21 19 21 25 28 29 31 29 23 21 20 8 7 16 11 5 6 4 5 14 15 12 16 22 25 26 27 27 32 40 42 43 46 46 42 39 39 39 41 43 44 44 45 45 46 47 50 52 51 46 42 38 35 32 31 32 33 35 37 39 39 39 39 40 41 42 44 45 46 48 48 48 49 50 52 52 52 52 52 52 51 51
11 5 13 23 22 18 19 19 20 22 28 32 28 26 24 17 16 20 15 8 6 3 3 7 10 15 24 30 28 26 27 31 37 41 42 44 48 47 41 39 40 41 43 44 44 44 45 46 48 51 53 51 46 42 39 35 34 33 33 33 34 37 39 40 38 38 38 39 39 41 42 43 44 45 45 45 46 47 49 50 50 50 51 52 54 54
12 6 16 25 24 20 16 13 14 15 20 24 23 21 20 19 21 17 11 14 15 11 11 8 10 25 36 32 26 27 31 37 41 41 43 48 50 47 44 42 43 43 42 43 43 44 46 48 51 54 52 48 44 40 38 36 36 36 36 37 38 40 41 41 39 38 38 39 39 40 41 42 43 43 44 44 44 45 46 48 49 49 48 49 51 53
14 10 19 25 21 17 13 11 13 14 19 22 18 17 16 16 20 13 8 19 24 20 22 17 12 25 35 30 28 34 38 41 42 42 46 50 49 47 46 45 44 44 44 44 45 46 48 51 53 52 49 45 43 41 40 40 40 40 41 41 42 43 42 41 40 38 39 40 40 40 41 41 42 43 43 44 45 46 46 48 49 49 50 50 50 50
12 11 21 27 24 21 17 13 13 15 22 24 20 19 17 17 22 20 17 24 23 19 20 12 9 23 35 35 36 40 41 42 42 44 47 49 48 47 46 46 45 46 47 48 49 50 51 52 51 48 45 43 42 41 42 44 45 45 45 44 44 43 43 41 40 40 40 41 41 41 41 42 42 43 44 45 46 48 48 49 50 50 51 52 53 52
11 10 17 20 19 22 21 16 17 22 26 27 23 21 20 21 23 23 23 21 16 17 14 5 11 32 41 41 43 43 42 43 44 45 47 47 48 47 46 47 47 47 50 51 52 52 51 50 47 43 41 41 41 43 44 46 48 47 46 45 44 43 42 42 41 41 41 41 42 43 43 43 44 45 46 47 49 50 50 51 51 52 52 53 54 54
14 13 14 11 5 7 10 12 18 26 29 27 24 20 20 22 23 23 23 17 14 19 17 14 23 43 48 44 45 45 44 46 47 47 48 47 47 47 47 48 49 51 53 53 51 50 48 46 43 40 40 41 43 45 47 48 48 47 46 44 43 42 41 41 41 41 42 43 44 44 45 46 47 48 49 50 52 53 53 53 54 54 54 55 55 56
15 14 15 14 10 9 15 18 18 21 25 27 25 21 19 20 22 24 22 20 21 25 28 30 35 43 49 47 46 47 46 48 50 50 49 48 47 47 47 49 52 54 54 51 49 48 46 43 41 41 42 44 46 47 48 48 47 46 45 43 42 42 42 42 42 42 43 44 46 47 48 49 50 52 53 54 55 56 57 57 57 57 57 57 58 58
16 15 15 18 20 19 20 20 18 18 23 26 25 23 20 18 22 25 23 25 25 21 28 39 37 38 48 51 46 46 47 49 51 50 47 47 47 47 48 51 53 53 50 48 48 47 44 42 42 44 45 47 48 49 48 47 45 45 44 44 43 43 43 43 43 43 44 45 46 48 49 50 51 53 55 56 57 58 58 58 58 59 59 59 60 60
16 15 17 21 24 23 19 17 19 20 22 23 24 23 20 17 20 24 25 27 26 25 32 43 42 42 50 50 46 46 48 50 51 48 46 47 47 48 51 53 53 50 48 47 47 45 43 44 45 46 48 50 50 49 48 46 45 45 44 44 44 44 43 43 44 44 45 46 47 47 48 48 49 50 53 55 56 56 56 56 56 56 57 57 58 58
15 17 19 22 26 23 16 17 22 24 25 25 21 17 17 18 20 24 26 26 28 33 38 42 44 47 48 46 46 48 49 49 48 46 46 47 49 52 54 53 51 49 48 48 46 44 44 45 47 49 51 51 49 48 48 47 46 46 45 45 45 44 44 44 44 44 45 46 46 47 47 47 47 48 50 52 53 54 54 53 53 53 53 53 54 54
16 18 19 24 28 23 17 21 26 27 29 26 17 12 15 19 22 24 26 26 28 34 37 37 43 47 45 43 47 48 46 46 45 45 47 49 52 54 53 51 50 48 48 47 46 45 46 47 50 51 52 51 49 47 47 47 47 47 46 46 46 45 45 44 45 45 45 46 46 46 46 46 46 47 48 49 50 51 52 51 51 50 50 50 51 51
16 18 20 24 27 26 24 26 29 31 29 21 14 16 19 22 25 27 27 27 29 33 36 37 43 46 45 44 46 45 43 43 44 46 50 52 52 51 50 49 49 47 47 47 47 47 48 49 51 51 51 50 48 47 47 47 47 46 46 46 46 45 45 45 45 45 45 45 45 45 45 45 44 44 45 46 46 47 48 48 48 48 47 48 48 49
17 18 21 21 23 28 29 28 33 32 21 14 17 22 23 24 28 31 31 30 30 32 35 39 44 46 45 44 44 44 43 44 47 49 50 51 49 47 47 48 47 47 47 48 48 49 50 50 50 50 50 49 48 48 47 47 46 46 46 46 45 45 45 45 44 44 44 43 43 43 43 43 43 43 43 43 43 43 43 44 44 44 44 44 45 45
17 18 21 19 20 27 31 32 33 21 7 14 25 23 22 27 30 33 36 35 33 33 36 41 43 42 42 42 43 44 45 47 49 49 48 48 47 46 46 46 47 48 48 48 49 50 50 50 49 49 49 48 47 47 46 45 45 45 45 44 44 44 43 43 43 43 43 42 42 41 41 41 41 41 41 40 40 40 40 40 40 40 40 41 41 42
18 19 19 19 21 27 30 28 19 8 11 24 26 19 23 30 31 36 42 40 36 36 37 39 39 39 40 43 43 45 48 48 49 48 46 45 44 45 46 48 48 49 49 49 49 49 49 49 49 49 48 47 47 45 44 44 45 45 44 44 43 43 43 43 42 42 42 41 41 40 40 40 40 39 38 38 37 37 37 37 37 37 37 38 39 40
18 18 19 21 22 22 22 14 7 16 29 28 18 18 25 29 30 36 43 43 39 35 35 36 38 40 42 44 45 46 48 49 48 47 45 43 44 46 48 50 50 49 48 48 49 49 49 48 48 48 48 47 46 45 44 44 44 44 44 43 43 42 42 41 41 41 41 40 39 39 38 38 38 37 36 35 35 35 35 35 35 34 34 35 36 37
17 18 19 20 17 15 18 19 22 30 31 22 19 24 26 28 31 31 38 43 38 29 32 37 40 43 43 44 45 45 47 50 50 46 44 44 46 47 49 50 49 47 47 47 47 48 47 47 47 47 47 47 45 44 44 44 44 44 44 42 42 41 40 40 39 39 39 38 37 37 36 36 36 35 34 33 33 33 33 32 32 30 31 32 32 32
17 20 20 17 16 17 19 20 19 18 15 16 23 27 27 30 31 28 37 43 35 29 37 42 42 43 44 44 45 45 46 51 52 47 45 46 47 47 47 48 46 46 46 46 47 47 46 46 47 47 47 46 45 43 43 43 43 44 43 42 41 40 39 39 38 37 37 37 36 35 34 35 35 34 33 32 32 32 31 30 29 29 29 30 31 30
18 20 21 20 22 23 20 12 7 10 13 20 25 26 26 29 31 29 34 39 38 38 43 43 41 43 44 44 46 45 46 50 53 50 47 47 47 46 46 45 45 45 45 45 46 47 47 47 47 47 47 46 45 44 43 43 43 43 42 42 40 39 39 38 37 37 36 35 35 34 34 34 34 33 32 31 30 30 30 29 29 28 29 29 30 29
19 20 22 25 26 25 22 18 17 21 24 25 23 23 24 30 32 25 19 28 42 45 43 42 43 43 43 44 45 45 45 48 52 52 48 47 47 46 45 45 44 45 45 45 45 46 47 48 48 47 46 46 45 44 44 43 43 42 42 41 40 39 38 38 37 36 36 35 33 33 33 33 33 32 31 30 29 29 29 29 29 28 29 29 28 28
20 19 21 25 25 24 23 24 26 31 29 22 20 24 27 29 27 20 19 33 45 45 42 43 43 42 43 44 45 46 46 46 49 51 49 48 47 46 45 45 45 45 45 46 46 47 48 49 49 48 46 45 45 44 44 44 44 43 42 41 39 38 37 37 36 35 35 34 32 31 31 32 32 32 30 29 29 29 29 29 29 28 28 28 27 27
18 15 17 21 21 20 22 24 27 28 25 22 25 30 30 27 25 27 35 43 44 41 42 43 42 42 44 44 44 46 47 46 48 48 48 47 47 46 45 45 46 46 46 47 48 48 49 50 49 48 46 45 44 44 44 44 44 43 42 41 39 38 37 36 35 34 33 32 31 30 30 30 31 31 30 28 28 29 28 28 28 28 26 26 26 25
19 16 17 20 18 15 16 16 15 18 24 29 32 32 31 31 34 38 43 44 42 43 43 42 43 43 44 45 46 46 46 47 47 47 47 47 46 46 46 46 46 47 47 48 49 50 51 52 51 49 47 46 44 43 43 43 43 43 42 40 39 38 37 35 35 33 32 31 30 29 29 29 29 29 29 28 28 28 27 27 27 26 25 25 25 24
22 20 20 22 20 15 16 17 17 23 30 34 34 33 34 36 38 39 41 43 44 43 42 43 45 44 43 46 46 46 47 47 46 47 47 46 46 46 46 46 46 47 48 50 50 51 52 53 53 51 49 46 45 44 43 42 42 41 40 39 38 38 36 35 34 32 31 30 29 29 28 28 27 27 27 27 27 27 26 25 25 25 24 24 24 23
24 25 25 28 28 26 28 31 32 32 33 34 36 37 36 36 36 38 40 43 43 42 42 44 45 44 44 46 46 46 47 47 46 47 46 46 46 46 46 46 47 48 50 51 51 52 53 53 53 52 50 47 45 43 42 41 41 40 38 37 37 37 36 35 33 32 30 29 28 28 28 26 25 25 26 26 26 26 25 24 23 23 23 23 22 21
29 30 31 32 33 33 37 39 37 34 35 36 38 38 36 36 38 38 40 42 42 42 42 43 44 45 45 45 46 47 47 46 47 47 46 46 47 46 46 47 48 49 51 52 53 53 53 52 52 51 49 47 44 42 41 39 39 38 37 36 36 36 35 34 32 31 30 29 28 27 27 26 25 24 24 24 25 25 24 23 23 22 22 22 21 20
32 31 32 34 34 34 38 41 38 36 38 39 38 37 37 38 39 39 41 42 42 42 43 44 45 45 45 45 46 46 46 46 47 46 46 47 46 46 47 48 49 51 52 53 53 53 52 52 51 50 49 46 43 41 40 38 36 36 35 34 34 34 34 33 32 31 29 28 28 27 26 26 25 24 23 23 23 23 23 23 22 22 22 22 21 20
33 32 33 36 35 37 42 43 38 37 41 41 38 38 38 39 41 41 42 43 43 43 45 45 45 45 45 45 44 45 46 46 45 46 47 47 46 46 47 48 50 52 53 53 53 52 51 51 49 49 47 44 42 40 38 36 35 33 33 32 32 32 32 31 30 30 29 28 27 27 26 26 26 25 23 22 22 23 22 22 22 21 21 22 22 20
36 35 33 33 35 40 44 41 36 38 44 43 38 38 40 42 42 42 42 43 44 44 45 45 45 45 45 44 43 44 45 44 44 46 47 46 46 46 47 49 51 52 53 53 53 51 50 49 47 46 45 42 40 39 37 35 33 32 31 31 31 31 31 30 29 29 28 27 27 26 26 25 25 25 24 23 22 22 22 22 22 21 20 20 21 21
34 33 30 30 35 41 43 39 34 38 45 45 40 40 42 42 42 43 44 44 44 45 45 46 46 45 45 44 43 43 44 44 44 45 46 45 45 46 47 49 51 51 52 53 51 49 47 46 45 44 42 40 39 37 35 33 32 30 30 30 30 29 29 29 29 28 27 27 26 26 26 25 24 24 24 23 22 20 20 20 22 22 21 20 19 19
32 30 29 31 37 41 42 39 35 38 45 46 42 41 42 43 43 44 45 44 45 46 46 46 46 45 45 44 43 43 44 44 44 45 45 45 44 45 47 49 50 51 52 51 49 47 44 43 43 42 40 39 37 35 33 32 31 30 30 29 29 29 28 28 29 29 28 27 27 26 26 26 25 24 24 23 22 21 20 18 19 20 22 22 20 19
Wind_Direction
48 42 35 29 24 22 27 32 31 18 6 359 353 350 348 344 338 336 338 339 336 326 319 320 318 316 314 304 297 291 288 284 278 275 273 270 269 268 268 269 270 272 274 275 276 278 280 282 283 282 281 278 276 276 276 276 274 268 264 260 255 249 244 243 244 246 246 243 239 238 242 245 245 244 240 237 237 240 244 244 244 246 248 253 257 258
46 42 37 32 29 26 29 26 11 2 2 0 355 347 344 344 336 330 333 334 332 325 317 319 321 317 312 303 294 286 280 276 272 270 269 268 268 267 268 269 270 271 273 275 277 280 282 284 284 282 280 277 275 276 276 278 279 276 271 266 261 255 249 244 242 244 245 243 240 238 241 242 239 239 242 242 240 240 243 244 240 238 241 248 254 255
43 41 37 33 31 22 14 6 353 352 358 358 353 346 342 343 337 330 333 333 328 323 317 322 324 314 308 302 289 278 270 267 268 268 268 268 269 270 271 271 272 272 273 275 277 279 282 283 283 280 277 275 274 275 277 279 281 282 281 275 269 262 255 249 243 241 242 243 240 236 238 242 239 236 240 244 244 243 243 244 241 238 236 240 246 248
42 39 38 37 28 11 1 351 344 344 352 357 355 349 343 343 340 332 332 333 329 324 320 325 326 307 300 297 279 267 265 264 265 266 269 271 272 274 275 274 273 273 274 276 279 281 284 286 285 285 283 283 282 277 275 276 279 281 285 287 285 276 267 260 250 243 239 240 241 236 233 238 240 240 240 238 239 243 243 240 240 240 236 235 240 245
48 46 47 40 16 1 356 350 350 349 351 0 1 352 343 339 337 328 327 329 327 328 327 329 327 307 283 283 270 264 265 264 265 266 268 272 275 277 275 277 276 280 283 285 290 292 296 301 303 307 308 308 305 298 291 287 289 293 295 300 303 304 291 278 265 251 243 239 240 240 236 235 235 239 247 244 237 239 239 235 236 238 236 235 236 240
57 56 47 27 5 356 358 359 1 355 351 359 0 351 343 337 333 326 328 330 326 328 328 328 331 319 236 270 272 273 268 265 267 270 275 275 277 277 274 282 288 297 308 313 322 326 327 331 333 335 334 332 329 324 323 321 321 319 316 317 314 316 314 302 291 271 255 245 241 241 241 240 235 235 244 250 244 242 238 232 232 233 234 236 235 235
66 57 27 14 9 0 5 7 4 358 353 356 355 347 342 337 331 327 330 329 322 318 316 319 319 275 254 277 277 281 277 275 278 281 290 290 288 291 290 297 305 314 328 334 342 345 343 344 342 340 339 341 342 341 341 338 335 331 324 321 318 316 316 311 306 296 285 265 249 246 245 247 247 240 239 242 242 243 241 233 229 227 227 230 231 231
69 37 17 17 16 7 8 8 4 1 357 353 351 346 342 338 333 331 329 325 319 312 313 324 318 278 269 289 287 298 296 290 293 296 302 303 301 303 303 312 321 327 335 338 341 340 338 337 333 332 333 333 334 335 337 334 334 335 331 328 326 323 319 313 309 301 296 295 276 260 253 254 260 258 250 247 246 245 244 240 233 229 228 228 227 227
59 22 22 19 11 9 10 7 5 4 357 354 352 347 344 341 339 340 336 330 327 314 313 339 342 305 269 285 292 319 308 297 303 304 303 304 305 310 316 325 334 336 336 334 333 330 328 327 324 324 324 323 322 320 320 321 322 325 326 327 327 326 324 316 311 307 300 297 295 287 275 266 268 273 268 262 261 260 257 250 242 236 234 234 236 232
52 24 25 18 9 7 7 9 9 7 0 355 352 348 350 351 349 355 357 343 336 314 311 349 356 346 298 276 269 316 316 312 319 313 311 321 329 333 332 331 330 329 327 326 325 324 322 321 319 319 318 317 316 315 312 311 310 310 310 312 314 317 321 320 315 311 306 300 295 291 288 282 276 277 279 275 271 270 268 262 253 246 242 239 244 248
48 28 22 15 10 3 4 13 14 11 4 356 355 354 356 357 357 8 19 349 335 308 317 338 340 335 320 268 276 303 311 313 312 310 322 334 338 339 336 332 328 325 324 323 322 321 320 318 317 316 314 313 312 311 310 309 306 304 302 300 301 303 306 310 313 312 310 306 302 296 289 286 283 279 277 276 273 270 269 267 262 257 255 250 248 253
33 21 21 12 3 1 3 10 16 19 9 0 1 1 358 358 359 2 4 359 353 283 316 323 327 324 297 271 305 299 294 293 291 297 314 323 325 330 333 332 330 327 326 325 323 322 320 318 316 315 314 314 313 312 311 310 308 306 303 300 297 296 296 296 298 302 305 306 305 303 298 292 288 285 281 278 276 274 270 268 268 266 264 260 256 256
181 16 23 13 1 4 3 4 13 17 8 5 6 6 6 2 358 357 354 358 334 300 316 325 327 317 276 311 314 297 281 276 279 292 309 323 329 332 333 333 332 329 328 327 326 325 323 320 319 318 317 315 315 314 313 313 312 311 309 306 302 298 296 294 292 290 293 296 298 299 300 298 294 290 287 284 281 280 278 274 272 273 271 268 263 261
74 12 15 13 7 7 7 8 12 7 2 7 7 8 16 15 350 353 340 340 310 306 317 325 325 306 297 320 320 310 287 269 275 294 310 325 333 335 335 334 332 331 331 330 329 328 327 325 323 322 320 317 315 314 314 314 315 315 314 312 309 305 302 298 296 293 290 289 290 291 292 293 294 293 290 288 284 282 282 280 278 277 276 274 271 268
43 40 7 15 10 2 11 19 13 1 2 8 6 9 15 12 349 286 309 331 306 305 314 321 320 300 305 313 316 311 290 271 282 300 312 323 331 333 332 331 331 332 332 332 331 331 329 328 327 325 323 320 318 317 316 315 315 316 315 313 311 309 307 304 301 299 296 292 290 289 288 286 286 288 288 288 287 283 281 279 279 279 278 277 275 273
30 47 9 17 11 357 8 20 11 4 8 6 4 7 6 2 320 277 295 307 303 300 308 312 298 300 306 307 309 303 285 278 289 303 314 325 330 331 330 330 331 331 332 330 329 329 328 327 327 326 324 321 320 319 317 316 316 315 313 310 308 307 307 306 305 303 301 299 297 295 292 288 284 282 282 282 283 283 281 279 277 276 275 276 276 275
6 15 13 15 12 1 5 12 11 10 10 4 4 5 359 350 304 310 307 306 310 298 296 304 303 310 310 306 305 294 278 280 292 309 320 328 331 331 329 328 327 327 327 325 322 322 322 322 323 322 320 319 319 319 317 317 317 316 314 310 309 308 307 306 306 305 304 303 301 300 298 294 290 285 281 279 277 277 278 277 276 274 272 271 271 272
348 350 13 12 8 3 0 1 8 14 11 5 4 2 357 346 316 336 322 306 317 287 291 301 303 308 308 303 302 289 272 283 304 319 325 328 329 328 326 323 322 322 321 318 316 316 316 317 317 317 316 317 318 318 318 319 320 319 317 313 311 311 310 309 308 307 306 305 303 302 301 299 297 292 287 282 278 276 275 274 273 271 270 269 267 267
348 338 4 9 4 0 357 355 3 9 8 6 4 1 4 0 305 332 334 294 301 297 295 302 303 304 297 292 298 295 287 295 312 321 323 324 325 325 322 320 320 319 317 314 312 312 312 312 313 313 315 316 318 318 319 319 319 317 315 312 311 310 310 309 308 307 306 305 304 303 303 302 300 298 294 289 284 279 276 274 272 270 268 266 265 265
356 328 346 3 2 356 355 359 3 2 359 360 1 3 9 6 311 322 318 269 281 286 285 303 306 300 297 301 303 299 294 299 312 316 316 318 322 323 321 319 317 315 311 310 309 309 310 310 311 312 314 315 316 316 316 315 313 312 310 308 307 306 306 306 306 306 304 303 303 303 303 303 302 300 298 295 290 286 281 278 274 271 268 266 264 263
3 326 334 352 2 3 360 2 3 359 355 353 354 358 358 348 335 329 317 304 309 287 271 309 301 291 303 311 307 300 300 307 312 312 312 316 321 322 320 316 314 311 309 308 308 308 309 310 312 313 313 314 313 312 311 309 308 307 306 305 303 303 305 306 306 305 303 302 302 302 303 303 303 301 300 298 294 291 288 284 280 275 272 268 264 263
4 339 332 343 355 3 1 356 356 356 352 348 346 349 346 339 339 339 324 319 323 308 291 292 285 292 303 311 309 308 311 312 312 310 311 317 319 319 318 315 313 312 311 310 309 309 310 310 312 313 312 311 310 309 308 306 306 306 305 304 304 304 306 307 307 305 303 302 302 303 303 303 303 302 300 298 296 294 291 289 287 284 280 274 268 264
3 346 337 340 347 357 4 359 352 349 345 344 345 345 340 330 328 326 303 307 312 304 293 287 276 290 303 312 313 314 316 314 312 311 312 316 317 316 316 315 316 315 314 313 311 310 309 309 311 311 310 308 308 309 309 309 309 308 306 305 303 304 305 305 305 303 302 301 301 301 301 300 300 299 297 296 295 293 292 290 289 288 287 283 277 271
7 351 342 342 345 352 1 2 348 339 337 339 340 338 331 320 318 313 301 300 297 287 287 287 272 291 306 316 315 315 316 314 312 311 312 314 315 316 316 316 317 316 315 314 312 311 309 309 310 309 308 308 309 311 312 312 311 308 306 305 304 304 304 303 302 300 300 299 299 298 297 296 294 293 292 292 291 290 289 288 288 287 286 285 283 279
8 358 349 347 348 351 355 356 342 332 333 334 332 329 322 316 316 311 305 301 288 278 278 245 267 295 309 315 312 313 316 314 314 313 313 315 315 316 317 316 316 315 315 314 312 311 310 310 310 309 309 310 311 312 313 312 311 309 307 305 304 304 302 301 299 297 296 296 295 294 293 292 291 289 288 287 286 286 285 285 285 285 284 284 283 283
356 355 358 359 356 338 326 320 322 322 322 325 327 325 319 314 309 307 305 296 284 286 274 240 270 297 311 314 311 316 318 315 316 315 315 315 315 315 315 315 315 315 315 314 311 310 311 311 311 311 311 311 311 312 313 312 310 308 307 306 304 303 302 299 297 295 293 292 290 290 289 288 287 286 285 285 284 283 282 282 281 281 281 281 281 281
349 346 351 347 334 319 307 305 311 309 306 312 319 318 315 309 300 299 293 279 284 290 280 272 279 294 305 311 313 318 319 315 315 317 316 316 315 315 315 313 313 314 314 313 312 312 313 313 312 312 311 312 312 312 312 310 308 307 307 306 304 304 303 301 298 295 292 290 289 287 286 286 286 285 285 284 283 283 282 281 280 279 278 278 278 278
342 336 340 336 333 334 324 313 313 308 301 305 310 309 310 305 293 289 282 282 291 284 282 294 297 292 300 309 313 316 317 315 315 317 316 314 314 313 312 311 312 313 313 312 313 314 314 313 313 313 313 312 312 312 311 309 308 307 307 306 305 304 304 302 300 298 295 293 291 289 288 287 286 286 285 285 284 284 284 283 282 281 280 279 277 277
338 333 336 333 331 335 328 312 313 315 307 304 302 302 303 298 290 288 287 292 288 268 278 300 302 293 301 313 316 315 315 314 315 315 314 312 311 309 309 311 313 313 314 314 315 315 314 314 314 312 312 311 311 312 311 310 309 309 307 306 305 304 304 303 301 300 298 296 295 293 292 290 289 287 286 286 286 285 286 286 285 284 284 282 280 279
336 330 332 331 330 336 330 314 319 323 316 309 304 300 297 294 296 297 298 299 287 275 285 299 298 299 312 319 317 314 314 313 313 313 311 310 309 309 311 313 314 314 315 316 316 316 315 313 311 310 310 311 312 312 311 310 310 309 308 307 306 305 305 305 304 302 301 299 298 297 295 293 291 289 288 287 287 287 287 286 286 285 285 284 282 281
333 328 329 327 327 336 339 324 325 327 320 313 308 305 302 302 306 305 303 302 291 286 295 298 295 306 322 323 314 313 313 312 311 310 309 310 311 312 314 314 314 315 315 316 316 315 313 311 309 309 310 311 312 312 311 309 309 308 308 307 307 307 307 307 306 305 303 301 300 298 296 295 293 291 290 289 288 288 287 287 287 286 284 283 282 281
331 325 326 325 320 327 336 329 324 326 320 312 315 323 319 313 313 311 307 307 303 299 302 298 296 308 321 319 312 313 312 310 309 309 310 312 313 313 313 313 313 315 316 316 315 313 311 310 310 312 312 313 313 311 310 309 308 307 307 307 307 308 309 308 307 305 304 302 301 299 297 297 295 294 292 291 289 289 288 288 287 286 284 283 282 281
327 322 324 323 313 320 332 328 323 326 324 318 326 327 321 318 319 315 311 312 311 305 301 300 303 312 317 314 312 314 314 312 312 311 311 312 313 313 313 313 314 316 316 315 313 312 311 312 313 313 314 313 312 310 309 308 307 306 306 307 308 309 308 307 307 306 305 304 302 301 300 298 297 295 294 293 292 291 290 289 288 287 286 285 283 282
319 318 320 315 305 316 327 326 325 327 325 324 326 321 317 321 323 320 317 316 314 309 305 306 309 313 315 314 313 313 313 312 310 310 311 313 314 314 314 315 316 317 316 313 312 312 312 313 314 314 313 312 310 309 308 308 307 306 306 307 307 308 308 307 307 307 307 305 304 303 301 300 298 297 296 296 295 293 292 291 289 288 287 286 284 282
313 313 312 307 302 308 318 327 334 325 311 321 321 316 321 326 326 323 320 319 318 318 315 310 310 314 315 316 316 313 311 310 309 310 315 317 316 315 316 318 318 316 315 313 312 312 312 313 313 313 312 311 310 309 308 308 307 306 306 307 308 308 308 308 309 309 307 306 305 304 302 300 299 298 297 296 294 293 293 292 290 289 287 285 283 282
311 308 304 303 303 304 310 319 310 302 315 323 320 319 326 326 326 324 321 326 330 324 316 313 314 318 319 317 317 315 313 312 312 315 320 321 320 319 318 318 317 315 313 312 312 312 312 313 313 312 312 311 310 310 310 308 307 307 307 308 308 308 308 308 308 308 307 307 306 304 302 300 299 297 296 295 294 293 293 292 291 291 289 287 286 284
309 302 299 299 297 295 297 298 297 304 317 329 327 327 327 322 324 320 316 329 341 328 314 318 320 320 321 318 318 318 316 314 315 321 326 324 322 320 318 317 315 313 312 311 311 311 312 312 312 311 311 310 310 311 311 309 308 307 307 307 307 307 307 307 306 307 307 307 306 304 302 300 298 296 295 295 295 294 294 294 294 294 293 292 291 290
306 299 295 289 287 287 289 299 308 307 314 326 323 325 323 319 322 315 304 319 339 332 320 324 323 320 321 320 319 320 318 315 318 327 329 324 321 320 317 316 313 311 310 311 311 312 312 312 312 311 310 310 311 311 311 310 308 307 306 307 307 306 306 305 306 307 309 308 307 306 303 300 298 297 296 296 295 295 295 296 295 295 295 294 295 295
302 297 291 281 280 281 274 273 269 257 286 316 320 320 319 314 316 311 301 312 329 329 324 324 322 320 322 320 319 319 316 314 320 328 328 323 320 319 317 315 313 310 311 311 312 314 313 312 312 311 310 311 311 311 311 310 309 307 307 307 307 306 306 305 307 309 310 310 309 307 305 301 299 297 297 296 296 296 297 297 296 296 296 296 296 297
297 292 285 276 276 276 267 261 261 270 293 315 316 312 315 312 310 307 299 311 321 322 320 321 320 320 320 319 318 317 314 314 319 324 326 322 319 318 316 315 313 312 312 313 314 314 314 312 312 311 310 311 311 312 312 311 309 308 307 307 306 306 306 306 308 309 310 310 310 308 306 303 300 298 298 297 297 298 298 298 297 297 297 297 298 298
293 286 278 274 275 273 261 257 270 288 305 319 316 313 315 309 301 292 294 310 316 316 317 318 317 319 320 318 317 318 318 318 318 320 322 320 318 318 317 315 314 314 315 315 315 315 313 312 311 310 310 311 311 311 312 311 310 309 308 307 306 306 306 306 308 308 309 310 310 309 307 304 301 300 300 299 298 299 299 298 297 297 297 297 297 297
289 283 278 275 275 274 265 260 273 295 315 325 319 316 310 298 292 298 307 312 315 316 318 318 318 320 320 318 318 319 321 321 320 319 319 318 318 318 317 316 316 317 316 316 316 315 313 311 310 310 310 310 311 311 311 310 309 308 308 307 307 306 306 306 307 308 308 309 310 309 307 305 303 302 301 300 299 298 299 298 297 296 297 297 297 298
287 280 278 282 284 280 268 257 268 301 318 319 315 311 304 299 304 312 313 314 316 319 320 319 319 320 319 319 321 321 321 322 320 319 318 318 318 318 317 318 318 318 317 317 317 315 313 311 311 311 311 311 311 311 310 308 307 307 307 307 307 306 306 306 306 307 308 308 308 308 306 305 305 304 303 301 299 299 299 298 296 297 298 298 298 298
287 282 283 289 292 283 270 272 294 312 315 314 313 311 308 308 312 314 312 313 317 320 320 319 319 320 319 320 322 322 322 321 320 319 319 319 319 319 319 319 318 318 319 318 317 316 314 312 312 312 312 312 312 311 310 307 306 306 306 306 306 305 305 306 306 306 307 306 306 306 305 305 306 305 304 302 300 300 300 299 297 298 298 297 297 297
292 295 293 292 292 290 289 298 312 319 317 314 314 316 316 315 314 312 310 313 318 319 318 318 319 320 321 321 321 321 321 320 319 319 319 319 319 320 319 319 320 320 320 319 317 316 314 313 313 313 313 313 313 311 308 306 305 305 306 305 305 304 305 305 305 306 306 306 305 304 304 305 306 306 305 304 303 302 302 300 299 298 297 296 295 296
296 298 295 293 296 297 301 311 320 321 317 315 317 320 320 316 314 313 312 315 318 319 318 318 319 320 321 321 320 320 320 320 320 319 318 319 320 320 320 321 322 322 321 319 317 316 315 314 314 314 314 314 312 310 308 306 305 305 305 305 303 303 304 305 305 305 305 305 304 304 303 304 305 305 305 305 305 305 304 303 302 300 297 296 295 295
296 296 292 294 295 293 302 317 324 320 316 318 321 322 320 316 316 317 317 319 320 319 318 318 319 320 320 320 319 319 319 319 319 318 318 319 320 321 322 323 324 322 320 318 318 318 318 317 317 316 315 315 313 310 308 307 306 305 305 304 303 302 303 304 304 304 304 304 304 303 303 304 304 304 304 304 305 305 305 304 303 301 299 297 295 295
294 292 290 294 294 292 302 317 324 317 315 320 324 323 320 318 320 321 320 320 320 319 318 318 318 319 319 319 318 318 318 319 319 318 318 320 321 322 324 324 323 321 320 319 320 320 320 320 319 318 317 316 314 312 310 309 308 306 304 303 302 302 302 303 302 302 303 303 303 303 304 304 304 304 304 303 303 304 304 303 302 301 299 297 296 296
291 289 290 293 292 295 305 317 322 316 314 320 326 323 320 321 322 322 321 321 320 319 318 317 317 317 318 318 318 317 317 319 319 318 318 320 322 324 324 323 322 322 322 322 322 322 322 322 320 319 318 317 315 313 312 311 308 306 304 303 302 302 301 301 301 302 301 301 301 302 303 303 303 303 302 301 301 302 302 302 301 300 298 297 297 297
292 292 295 290 288 296 309 319 321 313 313 320 326 323 320 322 323 321 321 321 319 318 317 316 317 317 317 317 317 317 318 319 319 318 318 321 323 324 323 323 323 324 323 322 322 323 323 323 322 320 319 317 316 314 313 312 309 307 305 303 303 302 301 300 301 301 301 300 300 301 302 302 301 301 300 300 299 298 299 300 301 301 300 298 297 297
299 298 295 287 288 301 313 319 317 310 312 320 325 322 320 322 322 320 321 320 318 317 316 316 317 318 317 317 317 317 318 319 319 318 319 321 323 323 323 324 325 324 324 323 323 324 325 325 324 321 319 317 316 315 315 313 310 308 305 304 303 302 301 301 300 300 300 300 300 300 300 300 300 299 298 299 299 298 297 296 297 299 299 298 298 296